Weather History for Asyut, Egypt

Change the Weather History Date:

Wednesday, February 13, 2013

  Actual Average Record
Temperature  
Mean Temperature 56 °F -  
Max Temperature 74 °F 74 °F - ()
Min Temperature 39 °F 46 °F - ()
Degree Days  
Heating Degree Days 8    
Growing Degree Days 6 (Base 50)    
Moisture  
Dew Point 42 °F    
Average Humidity 59    
Maximum Humidity 100    
Minimum Humidity 21    
Precipitation  
Precipitation 0.00 in 0.00 in - ()
Sea Level Pressure  
Sea Level Pressure 30.03 in    
Wind  
Wind Speed 3 mph ()    
Max Wind Speed 8 mph    
Max Gust Speed -    
Visibility 5.4 miles    
Events      
T = Trace of Precipitation, MM = Missing Value Source: Averaged Metar Reports

Daily Weather History Graph

Daily Weather History Graph

Search for Another Location

Airport:

Trip Planner

Search our weather history database for the weather conditions in past years. The results will help you decide how hot, cold, wet, or windy it might be!

Date:

Astronomy

Feb. 13, 2013 Rise Set
Actual Time 6:34 AM EET 5:46 PM EET
Civil Twilight 6:10 AM EET 6:10 PM EET
Nautical Twilight 5:42 AM EET 6:37 PM EET
Astronomical Twilight 5:15 AM EET 7:05 PM EET
Moon 8:15 AM EET (2/13) 9:02 PM EET (2/13)
Length of Visible Light 12h 00m
Length of Day
11h 12m
Waxing Crescent, 11% of the Moon is Illuminated
Feb 13
Waxing Crescent
Feb 17
First Quarter
Feb 25
Full
Mar 4
Last Quarter
Mar 11
New

Hourly Weather History & Observations

Time (EET) Temp. Windchill Dew Point Humidity Pressure Visibility Wind Dir Wind Speed Gust Speed Precip Events Conditions
12:00 AM 50.0 °F - 42.8 °F 76% 30.04 in - NW 6.9 mph - N/A   Clear
1:00 AM 48.2 °F - 42.8 °F 82% 30.04 in - NW 6.9 mph - N/A   Clear
2:00 AM 46 °F - 41 °F 78% 30.06 in 6 mi NNW 5.8 mph - -  
2:00 AM 46.4 °F 43.5 °F 41.0 °F 81% 30.04 in - NNW 5.8 mph - N/A   Clear
6:00 AM 41.0 °F - 41.0 °F 100% 30.04 in - East 2.3 mph - N/A   Clear
7:00 AM 41.0 °F - 41.0 °F 100% 30.04 in 5.0 mi WNW 2.3 mph - N/A   Unknown
8:00 AM 42 °F - 40 °F 88% 30.39 in 5 mi SW 1.2 mph - -   Mist
8:00 AM 42.8 °F - 39.2 °F 87% 30.06 in 5.0 mi SW 1.2 mph - N/A   Unknown
9:00 AM 50.0 °F - 42.8 °F 76% 30.06 in 5.0 mi West 1.2 mph - N/A   Unknown
10:00 AM 55.4 °F - 44.6 °F 67% 30.06 in - West 1.2 mph - N/A   Clear
11:00 AM 62.6 °F - 46.4 °F 55% 30.06 in - WSW 1.2 mph - N/A   Clear
12:00 PM 68.0 °F - 44.6 °F 43% 30.04 in - WNW 1.2 mph - N/A   Clear
1:00 PM 69.8 °F - 42.8 °F 38% 30.01 in - NNW 3.5 mph - N/A   Clear
2:00 PM 73 °F - 41 °F 21% 29.98 in 6 mi South 2.3 mph - -   Clear
2:00 PM 73.4 °F - 41.0 °F 31% 30.01 in - South 2.3 mph - N/A   Clear
3:00 PM 73.4 °F - 39.2 °F 29% 29.98 in - East 3.5 mph - N/A   Clear
4:00 PM 73.4 °F - 41.0 °F 31% 29.98 in - NW 2.3 mph - N/A   Clear
5:00 PM 68.0 °F - 41.0 °F 37% 29.98 in - North 8.1 mph - N/A   Clear
6:00 PM 64.4 °F - 41.0 °F 42% 29.98 in - NNE 5.8 mph - N/A   Clear
7:00 PM 62.6 °F - 42.8 °F 48% 29.98 in - North 4.6 mph - N/A   Clear
8:00 PM 60 °F - 41 °F 37% 29.98 in 6 mi North 4.6 mph - -   Clear
8:00 PM 60.8 °F - 41.0 °F 48% 29.98 in - North 4.6 mph - N/A   Clear
9:00 PM 57.2 °F - 41.0 °F 55% 29.98 in - North 1.2 mph - N/A   Clear
10:00 PM 55.4 °F - 41.0 °F 58% 29.98 in - WNW 1.2 mph - N/A   Clear
11:00 PM 51.8 °F - 37.4 °F 58% 29.98 in - WSW 2.3 mph - N/A   Clear